Date,TemperatureHighF,TemperatureAvgF,TemperatureLowF,DewpointHighF,DewpointAvgF,DewpointLowF,HumidityHigh,HumidityAvg,HumidityLow,PressureMaxIn,PressureMinIn,WindSpeedMaxMPH,WindSpeedAvgMPH,GustSpeedMaxMPH,PrecipitationSumIn
2013-9-1,93.8,80.7,74.4,79.7,75.1,72.0,96,84,53,29.96,29.86,12,1,12,0.14
2013-9-2,94.2,79.7,73.3,81.4,75.1,72.4,97,87,57,29.98,29.87,14,1,14,0.79
2013-9-3,93.6,81.7,74.2,80.9,76.1,73.3,98,84,59,29.98,29.87,6,0,0,0.01
2013-9-4,91.0,82.2,75.0,80.1,76.4,71.4,97,83,67,30.07,29.96,11,1,0,0.00
2013-9-5,93.5,81.4,75.2,80.3,76.7,73.2,96,86,61,30.08,29.99,7,0,0,0.00
2013-9-6,89.8,79.9,74.2,80.6,75.7,73.0,97,88,69,30.05,29.97,7,0,0,0.00
2013-9-7,88.5,80.6,72.8,76.2,73.7,71.5,97,81,63,30.03,29.94,13,1,13,0.00
2013-9-8,88.7,81.0,72.9,74.0,71.5,68.8,93,74,58,29.98,29.91,9,1,0,0.00
2013-9-9,89.2,80.3,71.4,76.3,72.5,69.9,97,78,61,30.06,29.94,10,1,0,0.00
2013-9-10,89.0,83.1,79.0,75.8,73.1,70.9,84,72,61,30.14,30.03,14,2,14,0.00
2013-9-11,88.8,81.8,75.0,79.5,75.1,70.7,91,81,67,30.12,30.03,11,1,0,0.12
2013-9-12,88.8,80.1,74.1,78.3,74.8,72.0,97,85,61,30.04,29.89,11,0,0,0.21
2013-9-13,93.7,81.6,73.0,76.4,73.7,69.9,97,79,47,29.90,29.76,8,0,0,0.00
2013-9-14,90.2,81.5,74.0,79.2,75.5,71.5,94,83,65,29.99,29.80,8,0,0,0.00
2013-9-15,89.8,81.3,73.7,81.5,76.4,71.5,98,86,70,30.08,29.97,10,1,0,0.49
2013-9-16,89.3,82.3,74.1,79.6,76.6,72.9,97,83,70,30.08,30.00,8,1,0,0.00
2013-9-17,86.5,80.4,74.9,78.3,75.5,72.5,96,86,73,30.10,29.99,15,2,15,0.21
2013-9-18,83.5,78.4,74.9,75.3,73.3,70.2,95,84,74,30.10,30.01,17,3,17,0.33
2013-9-19,86.3,79.8,75.7,76.0,72.5,69.2,93,79,67,30.08,30.01,11,1,0,0.05
2013-9-20,85.8,77.7,70.6,75.1,71.1,68.7,96,81,65,30.05,29.92,11,1,0,0.03
2013-9-21,86.9,77.9,68.6,75.3,71.6,67.7,97,82,65,29.94,29.74,9,1,0,0.00
2013-9-22,83.9,77.1,73.6,76.9,73.2,70.9,95,88,76,29.83,29.72,9,1,0,0.12
2013-9-23,82.5,76.6,72.5,76.5,73.5,71.3,97,90,78,29.95,29.82,6,0,0,0.22
2013-9-24,79.0,75.5,72.9,76.7,74.2,72.0,98,96,90,29.94,29.79,7,0,0,1.01
2013-9-25,83.9,77.3,74.6,76.9,74.9,73.5,98,92,78,29.80,29.73,4,0,12,0.00
2013-9-26,75.7,75.0,74.4,75.1,74.2,73.5,98,97,97,29.77,29.72,2,0,0,0.00
2013-9-27,79.5,76.2,69.4,73.4,71.1,67.3,96,84,77,29.99,29.93,21,5,21,0.26
2013-9-28,78.9,75.2,71.6,71.9,69.9,67.7,96,84,75,30.06,29.95,12,4,20,0.19
2013-9-29,81.0,76.2,71.3,73.4,70.2,68.1,95,82,73,30.01,29.95,17,3,17,0.23
2013-9-30,81.4,75.9,73.2,70.0,67.2,63.9,86,75,61,30.03,29.93,13,1,13,0.00